[[{"header":{"parameterUnit":"m.s-1","parameterCategory":2,"la1":30.2991,"la2":30.254,"lo1":-89.0895,"lo2":-89.0444,"dy":0.0017,"dx":0.0017,"nx":28,"ny":28,"refTime":"2023-08-03T09:00:00:Z","depth":"0","parameterNumber":2,"parameterNumberName":"U-component_of_CURRENTS"},"data":[0,0,0,0,0,0,0,0,0,0,0,0,0,0,0,0,0,0,0,0,0,0,0,0,0,0,0,0,0,0,0,0,0,0,0,0,0,0,0,0,0,0,0,0,0,0,0,0,0,0,0,0,0,0,0,0,0,0,0.2529,0.2529,0,0.2506,0.2506,0.2506,0.239,0.2387,0.2384,0.2382,0.2346,0.2348,0.2349,0,0,0,0,0,0,0,0,0,0,0,0,0,0.2589,0.2587,0.2529,0.2529,0.2529,0.2507,0.2506,0.2506,0.239,0.2387,0.2384,0.2381,0.2346,0.2348,0.2349,0,0,0,0,0,0,0,0,0,0,0,0,0,0.2563,0.2587,0.2529,0.2469,0.2464,0.2507,0.2506,0.2506,0.2391,0.2387,0.2383,0.2379,0.2345,0.2347,0.235,0.2443,0,0,0.2357,0.2358,0,0,0,0,0,0,0,0,0.2564,0.256,0.2478,0.2473,0.2467,0.2448,0.2514,0.2484,0.2392,0.2417,0.2382,0.2377,0.2383,0.2382,0.2385,0.2441,0.244,0.2357,0.2358,0.2359,0.236,0,0,0,0,0,0,0,0.2566,0.2561,0.2518,0.2478,0.2472,0.2484,0.2475,0.2509,0.2421,0.2414,0.2406,0.2407,0.2379,0.2383,0.2383,0.2439,0.2357,0.2359,0.236,0.2361,0.2568,0.2572,0,0,0,0,0,0,0.257,0.2563,0.2519,0.2518,0.2509,0.2486,0.2475,0.2457,0.2421,0.2412,0.2411,0.2402,0.2381,0.238,0.2381,0.2513,0.2359,0.2361,0.2363,0.2564,0.2569,0.2573,0,0,0,0,0,0,0.2571,0.2565,0.252,0.2542,0.2537,0.2488,0.2469,0.2459,0.2444,0.2418,0.2408,0.2404,0.2378,0.2378,0.241,0.2509,0.2362,0.2364,0.2559,0.2565,0.2571,0.2762,0,0,0,0,0,0,0.2572,0.2566,0.2571,0.2542,0.2536,0.2565,0.2473,0.2461,0.2452,0.244,0.2411,0.2403,0.2375,0.2407,0.2412,0.251,0.2366,0.2553,0.2562,0.2569,0.2751,0.2774,0.2794,0,0,0,0,0,0.2574,0.2598,0.2571,0.2567,0.2538,0.2568,0.2569,0.2519,0.2456,0.2483,0.2446,0.2403,0.246,0.2412,0.2417,0.2518,0.255,0.2559,0.2568,0.2741,0.2769,0.2794,0,0,0,0,0,0,0.2632,0.2588,0.2557,0.2565,0.2575,0.2549,0.258,0.253,0.2523,0.2513,0.2449,0.2444,0.252,0.249,0.2438,0.2601,0.2503,0.2514,0.2633,0.2659,0.2681,0.2742,0.2368,0,0,0,0,0,0.265,0.2649,0.2624,0.264,0.2651,0.2615,0.2621,0.2595,0.2579,0.2568,0.255,0.2543,0.2574,0.2583,0.2612,0.2694,0.2708,0.2765,0.2787,0.2805,0.286,0.2957,0.2993,0.2603,0.2603,0.2603,0,0,0.2674,0.2657,0.2654,0.2654,0.2657,0.2715,0.2609,0.2646,0.2699,0.2576,0.2651,0.2628,0.2613,0.2708,0.274,0.2686,0.2923,0.2817,0.2833,0.2879,0.2971,0.3009,0.3043,0.261,0.2609,0.2608,0,0,0.2752,0.2719,0.2755,0.2776,0.2799,0.2801,0.2811,0.2808,0.2813,0.2876,0.2812,0.2848,0.2875,0.2903,0.2911,0.3076,0.304,0.3073,0.3232,0.3325,0.3358,0.3388,0.3451,0.3485,0.3077,0.3078,0.3078,0,0.2779,0.2818,0.2782,0.2842,0.2877,0.2843,0.292,0.2952,0.296,0.299,0.2929,0.3004,0.2989,0.3106,0.3163,0.3135,0.3158,0.3127,0.3356,0.3385,0.3412,0.347,0.3504,0.3088,0.3087,0.3086,0.3085,0,0.2892,0.2931,0.2972,0.3028,0.3073,0.3141,0.3175,0.3232,0.3224,0.3235,0.3336,0.3321,0.3352,0.3368,0.3318,0.3505,0.345,0.3375,0.329,0.3464,0.3512,0.3545,0.3103,0.3099,0.3096,0.3094,0,0,0.2922,0.3021,0.3034,0.3096,0.3173,0.3224,0.3352,0.3447,0.3512,0.3558,0.3642,0.3725,0.3683,0.3695,0.3645,0.3736,0.394,0.365,0.365,0.3717,0.4137,0.3814,0.3817,0.3895,0.3901,0.3907,0.4093,0,0.3021,0.3156,0.3183,0.3343,0.3429,0.3456,0.3569,0.3653,0.3696,0.3781,0.3811,0.3872,0.3816,0.3816,0.3919,0.3904,0.4037,0.3897,0.3958,0.3961,0.3655,0.3848,0.359,0.3708,0.4124,0.4129,0.4133,0,0.3139,0.3209,0.3361,0.3499,0.3535,0.3626,0.3774,0.3865,0.3979,0.4003,0.4081,0.4066,0.4199,0.4112,0.4282,0.4184,0.4226,0.4231,0.4236,0.3898,0.3698,0.3604,0.3751,0.3705,0.4182,0.4179,0.4175,0,0.322,0.335,0.3472,0.3518,0.3659,0.3736,0.3814,0.3932,0.4002,0.4134,0.416,0.4301,0.4317,0.4438,0.4396,0.4379,0.4539,0.45,0.4284,0.426,0.4037,0.3978,0.415,0.4722,0.4722,0.4721,0.4721,0,0.3357,0.3458,0.3508,0.3592,0.3717,0.3793,0.3937,0.402,0.4122,0.4184,0.4261,0.4301,0.4402,0.4443,0.4486,0.4425,0.4614,0.4376,0.4309,0.4086,0.4033,0.3969,0.3956,0.4728,0.4726,0.4725,0.4724,0,0.3493,0.3521,0.3649,0.3751,0.3775,0.3867,0.3978,0.4059,0.4145,0.422,0.4258,0.434,0.4347,0.4381,0.4508,0.4455,0.4325,0.4429,0.4121,0.4012,0.3719,0.3722,0.3571,0.3509,0.4287,0.428,0.4275,0,0.3592,0.3672,0.3736,0.3756,0.3808,0.3912,0.3967,0.4071,0.4116,0.4205,0.422,0.425,0.4192,0.4193,0.4119,0.4115,0.4077,0.3888,0.3823,0.3713,0.3676,0.3491,0.3444,0.3643,0.3632,0.3624,0.3617,0,0.377,0.3764,0.3835,0.3835,0.3875,0.3923,0.399,0.4014,0.4086,0.4107,0.4065,0.4027,0.3934,0.373,0.3646,0.3634,0.3631,0.3706,0.3731,0.3309,0.2994,0.2891,0.3503,0.3542,0.355,0.3555,0.3559,0.3562,0.3851,0.3882,0.3888,0.3873,0.3898,0.3859,0.3822,0.3843,0.3831,0.3712,0.3825,0.3617,0.3471,0.3269,0.322,0.2985,0.3086,0.2931,0.2993,0.2852,0.2632,0.302,0.2852,0.2855,0.2858,0.2861,0.2863,0,0.3872,0.3874,0.3901,0.3824,0.3764,0.3791,0.3752,0.3618,0.3461,0.3414,0.3293,0.3027,0.2798,0.2687,0.2472,0.2355,0.2288,0.2309,0.2145,0.2185,0.2685,0.2493,0.2066,0.2066,0.2066,0.2066,0.2066,0.2066,0.3874,0.3849,0.3803,0.3639,0.3581,0.3389,0.3294,0.3108,0.2999,0.268,0.2459,0.2391,0.2353,0.2178,0.2005,0.1965,0.1925,0.1638,0.1832,0.2334,0.2402,0.2467,0.2291,0.1827,0.1827,0.1175,0.1171,0.1168]},{"header":{"parameterUnit":"m.s-1","parameterCategory":2,"la1":30.2991,"la2":30.254,"lo1":-89.0895,"lo2":-89.0444,"dy":0.0017,"dx":0.0017,"nx":28,"ny":28,"refTime":"2023-08-03T09:00:00:Z","depth":"0","parameterNumber":3,"parameterNumberName":"V-component_of_CURRENTS"},"data":[0,0,0,0,0,0,0,0,0,0,0,0,0,0,0,0,0,0,0,0,0,0,0,0,0,0,0,0,0,0,0,0,0,0,0,0,0,0,0,0,0,0,0,0,0,0,0,0,0,0,0,0,0,0,0,0,0,0,0.04,0.04,0,0.0384,0.0383,0.0383,0.0345,0.0344,0.0343,0.0342,0.0371,0.0373,0.0374,0,0,0,0,0,0,0,0,0,0,0,0,0,0.0367,0.0368,0.04,0.04,0.0399,0.0384,0.0383,0.0383,0.0345,0.0344,0.0343,0.0342,0.0371,0.0373,0.0375,0,0,0,0,0,0,0,0,0,0,0,0,0,0.0369,0.0368,0.04,0.0378,0.0376,0.0384,0.0383,0.0383,0.0345,0.0344,0.0343,0.0342,0.037,0.0372,0.0375,0.0414,0,0,0.0382,0.0383,0,0,0,0,0,0,0,0,0.0369,0.0371,0.0382,0.038,0.0377,0.0365,0.0382,0.0396,0.0346,0.0357,0.0342,0.0341,0.0374,0.0376,0.0376,0.0416,0.0417,0.0382,0.0383,0.0384,0.0385,0,0,0,0,0,0,0,0.0369,0.0371,0.0394,0.0381,0.0379,0.0358,0.0358,0.0384,0.0374,0.0356,0.0353,0.0351,0.0373,0.0373,0.0376,0.0417,0.0382,0.0384,0.0386,0.0386,0.0522,0.0524,0,0,0,0,0,0,0.0374,0.0371,0.0394,0.0393,0.037,0.036,0.0359,0.037,0.0373,0.0371,0.0352,0.035,0.037,0.0373,0.0377,0.0447,0.0384,0.0387,0.0388,0.052,0.0522,0.0525,0,0,0,0,0,0,0.0373,0.0377,0.0395,0.038,0.0381,0.0362,0.0375,0.0371,0.037,0.0369,0.0368,0.0355,0.0369,0.0374,0.041,0.0447,0.0388,0.039,0.0517,0.0521,0.0524,0.0573,0,0,0,0,0,0,0.0373,0.0377,0.0386,0.0382,0.0382,0.041,0.0376,0.0371,0.037,0.0367,0.0372,0.0373,0.0369,0.0407,0.0412,0.0449,0.0392,0.0514,0.0519,0.0523,0.0569,0.0578,0.0586,0,0,0,0,0,0.0372,0.0394,0.0387,0.039,0.0397,0.0411,0.041,0.0391,0.0372,0.0384,0.0387,0.0373,0.0437,0.041,0.0416,0.0455,0.0512,0.0517,0.0522,0.0565,0.0576,0.0585,0,0,0,0,0,0,0.0377,0.0392,0.0384,0.0407,0.0412,0.0404,0.0416,0.0399,0.0409,0.0409,0.0398,0.0402,0.0448,0.0451,0.0421,0.0509,0.0475,0.0481,0.0505,0.0516,0.0524,0.0555,0.0394,0,0,0,0,0,0.0385,0.041,0.0413,0.043,0.0441,0.0429,0.0431,0.0422,0.0427,0.0429,0.0433,0.0449,0.0476,0.0492,0.0515,0.0564,0.0567,0.0595,0.0604,0.0611,0.0643,0.0681,0.0695,0.0541,0.0541,0.0541,0,0,0.0391,0.0401,0.0414,0.0433,0.0439,0.047,0.0429,0.0445,0.0469,0.0435,0.0478,0.048,0.0496,0.0547,0.0569,0.0551,0.0651,0.0617,0.0622,0.0651,0.0687,0.0702,0.0715,0.0544,0.0544,0.0543,0,0,0.0422,0.043,0.0466,0.0482,0.0498,0.0499,0.0507,0.0513,0.0516,0.0556,0.0539,0.057,0.0605,0.0627,0.0641,0.0717,0.0693,0.0717,0.0786,0.0822,0.0835,0.0846,0.084,0.085,0.0722,0.0722,0.0722,0,0.0423,0.0469,0.0476,0.0516,0.0532,0.0519,0.0558,0.0572,0.0585,0.0612,0.0583,0.0662,0.0654,0.0734,0.0744,0.0739,0.0736,0.0739,0.0832,0.0843,0.0854,0.0845,0.0856,0.0725,0.0724,0.0724,0.0724,0,0.0487,0.052,0.0546,0.0597,0.0619,0.0649,0.0671,0.0699,0.0701,0.0718,0.0792,0.0791,0.0843,0.0836,0.0807,0.0888,0.0851,0.0833,0.0801,0.0872,0.0858,0.0869,0.0729,0.0728,0.0727,0.0726,0,0,0.0488,0.0572,0.0578,0.0612,0.0661,0.0684,0.0749,0.0805,0.0862,0.0885,0.0969,0.0992,0.0995,0.1013,0.0988,0.1005,0.1042,0.0947,0.0947,0.0932,0.1092,0.1017,0.102,0.1031,0.1034,0.1036,0.1039,0,0.0528,0.0612,0.0644,0.0719,0.0766,0.0789,0.0852,0.0905,0.0951,0.1035,0.1063,0.113,0.1063,0.1085,0.1101,0.1069,0.1078,0.1042,0.1034,0.1034,0.0953,0.1035,0.1006,0.1003,0.1049,0.105,0.1052,0,0.0577,0.0627,0.071,0.0788,0.0812,0.0854,0.0955,0.1008,0.1126,0.117,0.1258,0.1282,0.1338,0.126,0.1271,0.1247,0.1182,0.1141,0.114,0.1071,0.0982,0.0948,0.102,0.1016,0.1067,0.1066,0.1065,0,0.0583,0.0667,0.073,0.0759,0.0855,0.0896,0.094,0.1052,0.113,0.1265,0.135,0.1423,0.1466,0.1434,0.1342,0.1314,0.133,0.1284,0.1161,0.1152,0.1132,0.1118,0.12,0.1298,0.1298,0.1298,0.1298,0,0.0622,0.0676,0.0734,0.0779,0.086,0.0908,0.1021,0.109,0.1225,0.136,0.1415,0.153,0.151,0.1516,0.1413,0.1323,0.139,0.1203,0.117,0.1143,0.1131,0.1126,0.1118,0.1298,0.1298,0.1298,0.1298,0,0.0661,0.0693,0.0767,0.0846,0.0877,0.0933,0.1063,0.1166,0.1265,0.145,0.1503,0.1626,0.1631,0.1569,0.1513,0.141,0.1309,0.1261,0.1207,0.1169,0.1048,0.1042,0.1085,0.1105,0.116,0.1159,0.1157,0,0.0701,0.0746,0.0815,0.0856,0.0899,0.0987,0.1081,0.1189,0.1315,0.1512,0.162,0.168,0.1753,0.1635,0.1461,0.1298,0.1266,0.1154,0.1107,0.1071,0.1042,0.1036,0.1052,0.1085,0.1084,0.1082,0.1081,0,0.079,0.0798,0.0855,0.0931,0.1007,0.112,0.1247,0.1345,0.1505,0.1644,0.1814,0.1871,0.1766,0.1625,0.1385,0.1255,0.1165,0.1117,0.1127,0.1045,0.1005,0.0997,0.1022,0.1068,0.107,0.1071,0.1071,0.1072,0.0843,0.0877,0.0932,0.1009,0.1109,0.1252,0.1342,0.1494,0.1674,0.1867,0.1916,0.1989,0.1795,0.1474,0.1304,0.1022,0.1061,0.0951,0.0959,0.0966,0.0969,0.0941,0.0916,0.0917,0.0917,0.0917,0.0918,0,0.0885,0.0933,0.1016,0.1105,0.1229,0.1278,0.1469,0.1561,0.1751,0.191,0.2018,0.1957,0.1713,0.1449,0.1073,0.0919,0.0883,0.0856,0.0882,0.0916,0.0934,0.0913,0.0832,0.0832,0.0832,0.0832,0.0832,0.0832,0.0908,0.0969,0.1009,0.1192,0.1281,0.1433,0.1533,0.1674,0.1795,0.1935,0.1976,0.2001,0.1892,0.1306,0.0982,0.0895,0.0893,0.0803,0.0855,0.0884,0.0895,0.0906,0.0888,0.0803,0.0803,0.0849,0.0849,0.0849]}],[{"header":{"parameterUnit":"m.s-1","parameterCategory":2,"la1":30.2991,"la2":30.254,"lo1":-89.0895,"lo2":-89.0444,"dy":0.0017,"dx":0.0017,"nx":28,"ny":28,"refTime":"2023-08-03T09:00:00:Z","depth":"2","parameterNumber":2,"parameterNumberName":"U-component_of_CURRENTS"},"data":[0,0,0,0,0,0,0,0,0,0,0,0,0,0,0,0,0,0,0,0,0,0,0,0,0,0,0,0,0,0,0,0,0,0,0,0,0,0,0,0,0,0,0,0,0,0,0,0,0,0,0,0,0,0,0,0,0,0,0.2253,0.2254,0,0.2285,0.2285,0.2285,0.2208,0.2205,0.2203,0.2201,0.2173,0.2174,0.2176,0,0,0,0,0,0,0,0,0,0,0,0,0,0.2271,0.2269,0.2253,0.2254,0.2255,0.2285,0.2285,0.2285,0.2208,0.2205,0.2203,0.2201,0.2173,0.2174,0.2176,0,0,0,0,0,0,0,0,0,0,0,0,0,0.2274,0.2269,0.2253,0.2223,0.2221,0.2285,0.2285,0.2285,0.2208,0.2205,0.2202,0.2199,0.2172,0.2174,0.2176,0.2248,0,0,0.2181,0.2182,0,0,0,0,0,0,0,0,0.2274,0.2273,0.2227,0.2226,0.2223,0.2243,0.2281,0.2271,0.2209,0.2209,0.2201,0.2198,0.2196,0.2196,0.2203,0.2247,0.2246,0.2181,0.2182,0.2183,0.2184,0,0,0,0,0,0,0,0.2274,0.2272,0.2261,0.2228,0.2226,0.2258,0.2254,0.228,0.2215,0.2208,0.2204,0.2216,0.2194,0.2202,0.2202,0.2245,0.2181,0.2183,0.2184,0.2185,0.2342,0.2345,0,0,0,0,0,0,0.2274,0.2271,0.2261,0.2263,0.2247,0.226,0.2255,0.2236,0.2216,0.2211,0.2218,0.2212,0.22,0.22,0.2201,0.2299,0.2183,0.2185,0.2186,0.2339,0.2343,0.2346,0,0,0,0,0,0,0.2274,0.2272,0.2259,0.2273,0.2274,0.2262,0.2243,0.2239,0.2244,0.2225,0.2217,0.2227,0.2198,0.2198,0.2211,0.2296,0.2186,0.2187,0.2335,0.234,0.2345,0.2486,0,0,0,0,0,0,0.2274,0.2271,0.2277,0.2272,0.2274,0.2314,0.2246,0.2242,0.2258,0.225,0.2231,0.2225,0.2195,0.2208,0.2213,0.2296,0.2188,0.2331,0.2338,0.2343,0.2477,0.2495,0.251,0,0,0,0,0,0.2274,0.2293,0.2276,0.2277,0.2274,0.2317,0.2322,0.2301,0.2262,0.2288,0.225,0.2225,0.225,0.2212,0.2216,0.2302,0.2328,0.2336,0.2343,0.247,0.2491,0.2509,0,0,0,0,0,0,0.2309,0.2288,0.2268,0.228,0.2305,0.2305,0.2342,0.2318,0.2313,0.2306,0.2252,0.2246,0.2302,0.2279,0.2238,0.2366,0.2293,0.2301,0.2389,0.2408,0.2425,0.2467,0.219,0,0,0,0,0,0.2321,0.2333,0.2322,0.2348,0.2357,0.2351,0.237,0.2362,0.2354,0.2349,0.2328,0.2321,0.2342,0.2348,0.2365,0.2427,0.2445,0.249,0.2506,0.252,0.2559,0.2646,0.2675,0.237,0.2369,0.2369,0,0,0.2344,0.2344,0.2347,0.2359,0.2374,0.2409,0.2354,0.2404,0.2444,0.2352,0.2396,0.2383,0.2371,0.2437,0.2463,0.2422,0.2617,0.2529,0.2541,0.2573,0.2657,0.2687,0.2713,0.2374,0.2373,0.2373,0,0,0.2387,0.2395,0.2398,0.2424,0.246,0.2488,0.2502,0.2511,0.2524,0.2568,0.2518,0.2544,0.2566,0.2578,0.2585,0.2707,0.2704,0.2721,0.2838,0.2922,0.2948,0.2971,0.3034,0.3061,0.2725,0.2725,0.2725,0,0.2418,0.241,0.2421,0.2436,0.2484,0.2519,0.2558,0.2599,0.2614,0.262,0.2602,0.2649,0.2645,0.2717,0.2771,0.275,0.2788,0.2759,0.2945,0.2969,0.299,0.3048,0.3077,0.2733,0.2732,0.2731,0.273,0,0.2427,0.245,0.2478,0.2509,0.2572,0.2637,0.2691,0.2734,0.2765,0.2776,0.2852,0.2864,0.2896,0.2906,0.2885,0.3038,0.3013,0.2959,0.2896,0.303,0.3081,0.3109,0.2744,0.2741,0.2739,0.2737,0,0,0.2453,0.2469,0.2488,0.2524,0.2622,0.2687,0.2771,0.2846,0.2905,0.2945,0.3057,0.3085,0.3105,0.312,0.3117,0.3188,0.3381,0.3164,0.3164,0.3229,0.3576,0.3222,0.3217,0.3366,0.3371,0.3376,0.3551,0,0.2472,0.2508,0.2526,0.2644,0.2694,0.2759,0.2852,0.293,0.3005,0.3135,0.3175,0.3293,0.3191,0.3272,0.333,0.3347,0.3462,0.3339,0.3436,0.3439,0.311,0.3239,0.3006,0.3112,0.3578,0.3582,0.3585,0,0.2503,0.2524,0.2593,0.2721,0.2749,0.2816,0.2989,0.3097,0.3243,0.3307,0.3402,0.3469,0.3588,0.3558,0.3631,0.3557,0.3633,0.3639,0.3644,0.3287,0.3135,0.3055,0.3144,0.3631,0.3627,0.3624,0.3621,0,0.2563,0.2626,0.2696,0.273,0.2838,0.2873,0.2982,0.3107,0.3227,0.3476,0.3569,0.3687,0.3776,0.386,0.3821,0.3787,0.3926,0.3867,0.363,0.3605,0.3409,0.3353,0.4063,0.4063,0.4062,0.4062,0.4061,0,0.2627,0.272,0.2708,0.2734,0.2817,0.2944,0.3081,0.3167,0.3412,0.3549,0.3697,0.3794,0.3864,0.3912,0.3941,0.3793,0.4005,0.3687,0.3636,0.3442,0.339,0.3829,0.38,0.4068,0.4067,0.4066,0.4065,0,0.2756,0.274,0.2842,0.2871,0.2828,0.2964,0.3094,0.3235,0.3423,0.3642,0.3755,0.3897,0.3876,0.3897,0.3999,0.3836,0.3833,0.3789,0.3521,0.3428,0.3455,0.3432,0.3542,0.3531,0.3522,0.3514,0.3508,0,0.2822,0.2827,0.2867,0.29,0.2902,0.3012,0.3051,0.322,0.3386,0.3623,0.3752,0.3821,0.3756,0.3681,0.3566,0.3518,0.3686,0.3213,0.3073,0.3468,0.3409,0.34,0.3389,0.2924,0.2913,0.2904,0.2897,0,0.2887,0.2919,0.2976,0.295,0.2972,0.3064,0.3146,0.3205,0.3438,0.3505,0.3561,0.3529,0.3451,0.3168,0.3059,0.3014,0.3159,0.3013,0.3598,0.2997,0.2872,0.2815,0.283,0.2819,0.2827,0.2833,0.2837,0.284,0.2923,0.2991,0.2968,0.3003,0.3041,0.3077,0.3047,0.3141,0.3178,0.3186,0.325,0.3036,0.2984,0.259,0.2497,0.2428,0.2633,0.2494,0.2531,0.2575,0.2376,0.2231,0.2026,0.2029,0.2032,0.2034,0.2036,0,0.2895,0.2949,0.2971,0.2951,0.2983,0.3031,0.3063,0.2977,0.2843,0.2827,0.2714,0.2303,0.2076,0.2096,0.1855,0.1738,0.1854,0.1652,0.1834,0.1909,0.1976,0.1757,0.1239,0.1237,0.1235,0.1233,0,0,0.2891,0.2895,0.289,0.2824,0.2839,0.2745,0.2733,0.257,0.2498,0.2157,0.198,0.1975,0.1995,0.1606,0.1527,0.1354,0.1645,0.1294,0.1936,0.2229,0.2295,0.2452,0.2191,0,0,0,0,0]},{"header":{"parameterUnit":"m.s-1","parameterCategory":2,"la1":30.2991,"la2":30.254,"lo1":-89.0895,"lo2":-89.0444,"dy":0.0017,"dx":0.0017,"nx":28,"ny":28,"refTime":"2023-08-03T09:00:00:Z","depth":"2","parameterNumber":3,"parameterNumberName":"V-component_of_CURRENTS"},"data":[0,0,0,0,0,0,0,0,0,0,0,0,0,0,0,0,0,0,0,0,0,0,0,0,0,0,0,0,0,0,0,0,0,0,0,0,0,0,0,0,0,0,0,0,0,0,0,0,0,0,0,0,0,0,0,0,0,0,0.0207,0.0207,0,0.0216,0.0216,0.0216,0.0202,0.0202,0.0201,0.0201,0.0223,0.0224,0.0224,0,0,0,0,0,0,0,0,0,0,0,0,0,0.0169,0.017,0.0207,0.0207,0.0208,0.0216,0.0216,0.0216,0.0202,0.0202,0.0201,0.0201,0.0222,0.0223,0.0225,0,0,0,0,0,0,0,0,0,0,0,0,0,0.0182,0.017,0.0207,0.0202,0.0202,0.0216,0.0216,0.0216,0.0202,0.0202,0.0201,0.0201,0.0222,0.0223,0.0225,0.0245,0,0,0.0229,0.023,0,0,0,0,0,0,0,0,0.0181,0.0183,0.0203,0.0203,0.0203,0.0208,0.0211,0.0227,0.0202,0.0201,0.0201,0.02,0.022,0.0222,0.0223,0.0246,0.0247,0.0229,0.023,0.0231,0.0231,0,0,0,0,0,0,0,0.018,0.0183,0.021,0.0203,0.0203,0.0197,0.0198,0.0214,0.0213,0.0201,0.02,0.0203,0.022,0.0222,0.0223,0.0247,0.0229,0.023,0.0231,0.0232,0.0309,0.031,0,0,0,0,0,0,0.0183,0.0182,0.0209,0.021,0.0191,0.0198,0.0199,0.0206,0.0213,0.0213,0.0204,0.0203,0.0219,0.0222,0.0224,0.0262,0.0231,0.0232,0.0233,0.0308,0.0309,0.0311,0,0,0,0,0,0,0.0182,0.0185,0.0209,0.0197,0.0199,0.02,0.0207,0.0207,0.0214,0.0215,0.0215,0.0212,0.0219,0.0222,0.024,0.0262,0.0233,0.0234,0.0307,0.0308,0.031,0.0329,0,0,0,0,0,0,0.0181,0.0185,0.0191,0.0197,0.02,0.0224,0.0208,0.0207,0.0217,0.0215,0.0222,0.0223,0.0219,0.0238,0.0241,0.0263,0.0235,0.0305,0.0307,0.0309,0.0327,0.0331,0.0335,0,0,0,0,0,0.018,0.0192,0.0191,0.0194,0.0208,0.0225,0.0226,0.0223,0.0218,0.0226,0.0227,0.0223,0.0255,0.024,0.0244,0.0267,0.0304,0.0307,0.0309,0.0325,0.033,0.0335,0,0,0,0,0,0,0.0172,0.0192,0.0191,0.0206,0.0217,0.0223,0.0233,0.0231,0.0238,0.024,0.0234,0.0236,0.0262,0.0265,0.0248,0.0297,0.0282,0.0285,0.0292,0.0297,0.0301,0.0331,0.0236,0,0,0,0,0,0.0175,0.0197,0.0205,0.0221,0.0228,0.0232,0.0239,0.024,0.0247,0.025,0.0251,0.0261,0.0277,0.0286,0.0298,0.0324,0.0334,0.0344,0.0348,0.0352,0.038,0.0412,0.0421,0.032,0.032,0.032,0,0,0.0177,0.0192,0.0203,0.0223,0.0232,0.0239,0.0235,0.0255,0.0258,0.0253,0.0262,0.0276,0.0288,0.0313,0.0326,0.0317,0.038,0.0355,0.0358,0.0385,0.0416,0.0426,0.0434,0.0322,0.0321,0.0321,0,0,0.0191,0.0206,0.0224,0.0232,0.0251,0.0258,0.0266,0.0276,0.0278,0.0296,0.0292,0.0325,0.0338,0.0356,0.0365,0.0406,0.04,0.0406,0.045,0.048,0.0489,0.0497,0.0491,0.0498,0.0407,0.0407,0.0407,0,0.0193,0.0217,0.0231,0.0241,0.0248,0.0266,0.0275,0.0282,0.0294,0.0295,0.0304,0.0369,0.0366,0.0419,0.0424,0.0417,0.042,0.0425,0.0485,0.0493,0.0501,0.0494,0.0502,0.0408,0.0408,0.0408,0.0408,0,0.0206,0.0227,0.0242,0.0261,0.0264,0.029,0.0292,0.0293,0.0308,0.0318,0.038,0.042,0.0474,0.0466,0.0453,0.0515,0.0492,0.0483,0.047,0.0512,0.0501,0.0509,0.041,0.041,0.0409,0.0409,0,0,0.022,0.025,0.0256,0.0275,0.0283,0.0299,0.0287,0.0299,0.0328,0.0362,0.0462,0.0463,0.0527,0.0547,0.0571,0.0587,0.0617,0.0559,0.056,0.0549,0.066,0.0566,0.0565,0.0615,0.0617,0.0619,0.0619,0,0.0237,0.0281,0.0269,0.0302,0.0332,0.0311,0.0308,0.031,0.0348,0.0451,0.0518,0.0634,0.0551,0.0647,0.0642,0.0643,0.0644,0.0617,0.0627,0.0627,0.0535,0.0574,0.0577,0.0572,0.0626,0.0628,0.0628,0,0.0247,0.0293,0.0331,0.0356,0.0361,0.0363,0.0387,0.0397,0.0483,0.0535,0.0648,0.0747,0.0829,0.0808,0.0778,0.0762,0.0718,0.0695,0.0694,0.0615,0.0549,0.0546,0.0584,0.0642,0.064,0.064,0.0639,0,0.028,0.0326,0.0373,0.0381,0.0405,0.0394,0.0403,0.0421,0.0474,0.0663,0.0789,0.0868,0.1005,0.0952,0.0881,0.0845,0.0867,0.0811,0.0679,0.067,0.0683,0.0671,0.0817,0.0817,0.0817,0.0817,0.0817,0,0.0296,0.0335,0.0405,0.0428,0.0471,0.0465,0.0515,0.0523,0.0667,0.0799,0.089,0.1066,0.1049,0.1074,0.0963,0.0835,0.0913,0.0704,0.0678,0.0683,0.0672,0.0748,0.074,0.0817,0.0817,0.0817,0.0817,0,0.0284,0.0342,0.0418,0.0479,0.0484,0.0526,0.0577,0.0632,0.075,0.0976,0.1082,0.1225,0.1226,0.116,0.1103,0.0935,0.084,0.0783,0.077,0.074,0.0596,0.059,0.0623,0.062,0.0617,0.0615,0.0613,0,0.0282,0.0314,0.0441,0.049,0.051,0.0569,0.0584,0.0671,0.0796,0.1059,0.1224,0.133,0.14,0.1244,0.1047,0.0847,0.0838,0.0672,0.0591,0.0613,0.0584,0.0581,0.0578,0.061,0.0608,0.0607,0.0606,0,0.0255,0.0314,0.038,0.0506,0.0561,0.0629,0.0723,0.0838,0.101,0.1199,0.1444,0.1524,0.1423,0.1235,0.0955,0.0812,0.0692,0.063,0.0723,0.0635,0.0595,0.0567,0.0567,0.0594,0.0595,0.0596,0.0597,0.0597,0.0239,0.0294,0.0412,0.0536,0.0616,0.0746,0.0823,0.0985,0.1198,0.149,0.1529,0.1595,0.1419,0.1034,0.0826,0.0598,0.0607,0.0472,0.048,0.0489,0.0465,0.042,0.038,0.038,0.038,0.038,0.038,0,0.0239,0.0326,0.0419,0.0614,0.0739,0.077,0.0956,0.1075,0.1354,0.1483,0.1633,0.1403,0.1203,0.1003,0.0647,0.041,0.043,0.0329,0.0411,0.0424,0.0435,0.0411,0.0311,0.031,0.0309,0.0309,0,0,0.026,0.0359,0.0449,0.0725,0.084,0.0998,0.1117,0.1295,0.1429,0.1518,0.1516,0.1482,0.1239,0.0951,0.0697,0.0501,0.0506,0.0456,0.0533,0.0673,0.0686,0.0536,0.0514,0,0,0,0,0]}],[{"header":{"parameterUnit":"m.s-1","parameterCategory":2,"la1":30.2991,"la2":30.254,"lo1":-89.0895,"lo2":-89.0444,"dy":0.0017,"dx":0.0017,"nx":28,"ny":28,"refTime":"2023-08-03T09:00:00:Z","depth":"4","parameterNumber":2,"parameterNumberName":"U-component_of_CURRENTS"},"data":[0,0,0,0,0,0,0,0,0,0,0,0,0,0,0,0,0,0,0,0,0,0,0,0,0,0,0,0,0,0,0,0,0,0,0,0,0,0,0,0,0,0,0,0,0,0,0,0,0,0,0,0,0,0,0,0,0,0,0.1056,0.1056,0,0.1067,0.1067,0.1067,0.1098,0.1099,0.11,0.11,0.1144,0.1144,0.1145,0,0,0,0,0,0,0,0,0,0,0,0,0,0.1055,0.1055,0.1056,0.1056,0.1056,0.1067,0.1067,0.1067,0.1098,0.1099,0.11,0.1101,0.1144,0.1144,0.1145,0,0,0,0,0,0,0,0,0,0,0,0,0,0.1058,0.1055,0.1056,0.1074,0.1076,0.1067,0.1067,0.1067,0.1098,0.1099,0.11,0.1101,0.1144,0.1144,0.1145,0.1125,0,0,0.1147,0.1147,0,0,0,0,0,0,0,0,0.1058,0.1058,0.1071,0.1073,0.1075,0.1084,0.1083,0.1089,0.1097,0.1088,0.11,0.1102,0.1127,0.1129,0.1126,0.1127,0.1129,0.1147,0.1147,0.1147,0.1148,0,0,0,0,0,0,0,0.1058,0.1058,0.1059,0.1071,0.1074,0.108,0.1082,0.1084,0.11,0.1089,0.1091,0.1095,0.1128,0.1125,0.1127,0.1129,0.1147,0.1147,0.1148,0.1148,0.1262,0.1264,0,0,0,0,0,0,0.1058,0.1058,0.1058,0.1059,0.1071,0.1079,0.1081,0.1078,0.1099,0.1104,0.1094,0.1096,0.1123,0.1126,0.1129,0.1184,0.1147,0.1148,0.1148,0.1259,0.1262,0.1265,0,0,0,0,0,0,0.1058,0.1058,0.1058,0.106,0.1061,0.1078,0.1075,0.1078,0.1105,0.1103,0.1108,0.1121,0.1124,0.1128,0.1164,0.1183,0.1148,0.1149,0.1256,0.126,0.1264,0.1245,0,0,0,0,0,0,0.1058,0.1058,0.1071,0.106,0.1061,0.1064,0.1074,0.1077,0.1104,0.1108,0.1127,0.1131,0.1126,0.1164,0.1165,0.1184,0.1149,0.1253,0.1258,0.1263,0.1242,0.1248,0.1252,0,0,0,0,0,0.1058,0.1057,0.1071,0.1073,0.1073,0.1064,0.1065,0.108,0.1104,0.1111,0.114,0.1132,0.1198,0.1165,0.1167,0.1186,0.125,0.1256,0.1262,0.124,0.1247,0.1252,0,0,0,0,0,0,0.1058,0.106,0.1075,0.1076,0.108,0.107,0.1081,0.1096,0.1122,0.1141,0.1146,0.1151,0.119,0.1205,0.117,0.1243,0.123,0.1237,0.1213,0.1219,0.1225,0.1219,0.115,0,0,0,0,0,0.1066,0.1064,0.1072,0.107,0.108,0.109,0.1097,0.1109,0.1123,0.1137,0.1159,0.1193,0.121,0.1229,0.1245,0.1276,0.1289,0.1302,0.1307,0.1311,0.1315,0.1384,0.1394,0.1285,0.1285,0.1285,0,0,0.1056,0.1063,0.1059,0.1071,0.1079,0.1063,0.1097,0.1111,0.109,0.1137,0.1147,0.1203,0.1223,0.1255,0.1277,0.1273,0.1343,0.1319,0.1321,0.1322,0.1391,0.1401,0.141,0.1289,0.1288,0.1287,0,0,0.1032,0.1056,0.1053,0.1046,0.1069,0.107,0.1082,0.1104,0.1114,0.1141,0.1169,0.125,0.1276,0.13,0.131,0.1362,0.1361,0.1383,0.1403,0.147,0.1479,0.1486,0.1472,0.1479,0.1393,0.1393,0.1393,0,0.1038,0.1022,0.1049,0.1035,0.1021,0.1071,0.105,0.1049,0.1082,0.111,0.115,0.1276,0.1291,0.1335,0.1356,0.1367,0.1388,0.1363,0.1472,0.1481,0.1489,0.1473,0.1481,0.1392,0.1392,0.1392,0.1392,0,0.0994,0.0987,0.0982,0.0974,0.0964,0.0957,0.0956,0.0997,0.1051,0.1071,0.1174,0.125,0.1343,0.1363,0.1363,0.1443,0.1428,0.1458,0.1442,0.1498,0.1478,0.1486,0.1392,0.1392,0.1392,0.1392,0,0,0.0975,0.0965,0.0958,0.0943,0.0934,0.0917,0.0912,0.0933,0.097,0.1061,0.114,0.121,0.1328,0.1353,0.1414,0.1476,0.1527,0.1497,0.1501,0.1454,0.1629,0.1501,0.1497,0.1587,0.159,0.1592,0.1572,0,0.0942,0.091,0.0904,0.0846,0.0823,0.0855,0.084,0.0865,0.0939,0.1034,0.1159,0.1252,0.1291,0.1393,0.146,0.1541,0.1558,0.1526,0.1607,0.1607,0.1466,0.1507,0.16,0.1578,0.158,0.1582,0.1583,0,0.0853,0.087,0.0824,0.0799,0.0797,0.0795,0.0837,0.0833,0.095,0.1023,0.1182,0.1279,0.1414,0.1452,0.1591,0.158,0.1588,0.1628,0.1629,0.1526,0.1497,0.1528,0.1597,0.1596,0.1595,0.1594,0.1593,0,0.0768,0.0764,0.0739,0.0719,0.0732,0.0768,0.0808,0.0879,0.0888,0.1068,0.1152,0.1319,0.1469,0.1536,0.1615,0.1623,0.1739,0.1757,0.1622,0.161,0.1734,0.1727,0.1799,0.1799,0.1799,0.1799,0.1799,0,0.0643,0.0613,0.0734,0.0713,0.0735,0.0757,0.0795,0.087,0.0982,0.1048,0.1181,0.1299,0.1511,0.1601,0.1625,0.1648,0.1742,0.1618,0.1613,0.1721,0.1713,0.1736,0.1729,0.1798,0.1798,0.1798,0.1799,0,0.0437,0.0519,0.0487,0.0604,0.0678,0.0673,0.0778,0.0807,0.0938,0.106,0.1125,0.1318,0.1468,0.1561,0.17,0.1664,0.1682,0.1632,0.1688,0.1687,0.1492,0.1485,0.1505,0.15,0.1497,0.1494,0.1491,0,0.0329,0.0308,0.0416,0.0452,0.0518,0.0587,0.0655,0.0786,0.085,0.1066,0.1142,0.1319,0.1444,0.1509,0.1612,0.1607,0.1583,0.1543,0.1561,0.1477,0.1471,0.1469,0.1467,0.1485,0.1484,0.1483,0.1482,0,0.0145,0.0174,0.0181,0.0292,0.0383,0.042,0.0587,0.0618,0.0815,0.0935,0.1143,0.1231,0.1382,0.1489,0.1476,0.1472,0.1569,0.1506,0.1514,0.153,0.1454,0.1451,0.1453,0.147,0.1472,0.1473,0.1473,0,0.0037,-0.001,0.0067,0.0127,0.0219,0.031,0.0368,0.0552,0.0645,0.0959,0.1037,0.1225,0.1422,0.1412,0.1406,0.1395,0.1387,0.1339,0.1356,0.137,0.1335,0.1218,0.1156,0,0,0,0,0,-0.0043,-0.0065,-0.0052,0.0047,0.0103,0.0209,0.0365,0.0441,0.0696,0.0819,0.0937,0.1075,0.117,0.1237,0.1198,0.1279,0.1331,0.122,0.1269,0.14,0.1414,0.1385,0,0,0,0,0,0,-0.0079,-0.0088,-0.0087,-0.0016,0.0054,0.0168,0.026,0.0415,0.0511,0.076,0.0811,0.1001,0.1078,0.1202,0.1188,0.1199,0.1199,0.1327,0.1323,0.1391,0.1405,0.1416,0.1391,0,0,0,0,0]},{"header":{"parameterUnit":"m.s-1","parameterCategory":2,"la1":30.2991,"la2":30.254,"lo1":-89.0895,"lo2":-89.0444,"dy":0.0017,"dx":0.0017,"nx":28,"ny":28,"refTime":"2023-08-03T09:00:00:Z","depth":"4","parameterNumber":3,"parameterNumberName":"V-component_of_CURRENTS"},"data":[0,0,0,0,0,0,0,0,0,0,0,0,0,0,0,0,0,0,0,0,0,0,0,0,0,0,0,0,0,0,0,0,0,0,0,0,0,0,0,0,0,0,0,0,0,0,0,0,0,0,0,0,0,0,0,0,0,0,-0.0034,-0.0034,0,-0.0049,-0.0049,-0.0049,-0.0034,-0.0034,-0.0033,-0.0033,-0.0023,-0.0024,-0.0024,0,0,0,0,0,0,0,0,0,0,0,0,0,-0.0027,-0.0027,-0.0034,-0.0034,-0.0034,-0.0049,-0.0049,-0.0049,-0.0034,-0.0034,-0.0033,-0.0032,-0.0023,-0.0024,-0.0024,0,0,0,0,0,0,0,0,0,0,0,0,0,-0.0034,-0.0027,-0.0034,-0.0029,-0.0029,-0.0049,-0.0049,-0.0049,-0.0034,-0.0034,-0.0033,-0.0032,-0.0023,-0.0023,-0.0024,-0.0043,0,0,-0.0025,-0.0025,0,0,0,0,0,0,0,0,-0.0034,-0.0034,-0.0029,-0.0029,-0.0029,-0.0039,-0.0043,-0.0046,-0.0035,-0.0032,-0.0032,-0.0032,-0.0027,-0.0027,-0.0032,-0.0042,-0.0042,-0.0025,-0.0025,-0.0026,-0.0026,0,0,0,0,0,0,0,-0.0033,-0.0034,-0.0039,-0.003,-0.0029,-0.0038,-0.0038,-0.0044,-0.0033,-0.0032,-0.0031,-0.0034,-0.0027,-0.0031,-0.0031,-0.0042,-0.0025,-0.0025,-0.0026,-0.0026,-0.0035,-0.0035,0,0,0,0,0,0,-0.0032,-0.0033,-0.0039,-0.004,-0.003,-0.0039,-0.0039,-0.0036,-0.0033,-0.0033,-0.0034,-0.0033,-0.0031,-0.0031,-0.0031,-0.0027,-0.0026,-0.0026,-0.0026,-0.0035,-0.0035,-0.0035,0,0,0,0,0,0,-0.0031,-0.0032,-0.0038,-0.0038,-0.0039,-0.004,-0.0037,-0.0037,-0.0037,-0.0036,-0.0034,-0.0034,-0.003,-0.003,-0.0031,-0.0027,-0.0026,-0.0026,-0.0035,-0.0035,-0.0035,-0.0036,0,0,0,0,0,0,-0.0031,-0.0031,-0.0032,-0.0037,-0.0039,-0.0047,-0.0038,-0.0038,-0.004,-0.0039,-0.0035,-0.0034,-0.003,-0.003,-0.0031,-0.0028,-0.0027,-0.0035,-0.0035,-0.0035,-0.0036,-0.0036,-0.0036,0,0,0,0,0,-0.0031,-0.0032,-0.0032,-0.0033,-0.0038,-0.0047,-0.0049,-0.0046,-0.0041,-0.0043,-0.0038,-0.0033,-0.003,-0.0031,-0.0032,-0.0029,-0.0035,-0.0035,-0.0035,-0.0036,-0.0036,-0.0036,0,0,0,0,0,0,-0.0036,-0.0031,-0.003,-0.0032,-0.0038,-0.0044,-0.0048,-0.0048,-0.0047,-0.0043,-0.0038,-0.0037,-0.0037,-0.0034,-0.0035,-0.0031,-0.003,-0.003,-0.0031,-0.0031,-0.0031,-0.0007,-0.0027,0,0,0,0,0,-0.0037,-0.0034,-0.0036,-0.0041,-0.0041,-0.0045,-0.0049,-0.0048,-0.0049,-0.0047,-0.0047,-0.0043,-0.0041,-0.0036,-0.0038,-0.0038,-0.004,-0.0035,-0.0035,-0.0036,-0.0016,-0.0024,-0.0022,-0.0035,-0.0035,-0.0035,0,0,-0.0042,-0.004,-0.004,-0.0042,-0.0045,-0.0029,-0.0045,-0.005,-0.0032,-0.0047,-0.003,-0.0049,-0.0043,-0.0041,-0.004,-0.0035,-0.0038,-0.0036,-0.0036,-0.0016,-0.0023,-0.0022,-0.0021,-0.0035,-0.0035,-0.0035,0,0,-0.0036,-0.0047,-0.0031,-0.0027,-0.0028,-0.0032,-0.0031,-0.0037,-0.0033,-0.0035,-0.0034,-0.0044,-0.005,-0.0037,-0.0032,-0.0033,-0.0044,-0.0043,-0.0017,-0.0025,-0.0024,-0.0023,-0.0046,-0.0047,-0.0036,-0.0036,-0.0036,0,-0.0038,-0.0011,-0.0032,-0.0006,0.0006,-0.0025,0.0005,-0.0002,-0.0008,-0.0005,-0.0027,-0.0033,-0.0039,-0.0014,-0.002,-0.003,-0.0047,-0.0019,-0.0025,-0.0024,-0.0022,-0.0046,-0.0047,-0.0036,-0.0036,-0.0036,-0.0036,0,-0.0002,0.002,0.0026,0.0057,0.0057,0.007,0.0066,0.0061,0.0044,0.0034,0.0028,0.0006,0.001,-0.0006,-0.0015,-0.0006,-0.0027,-0.0031,-0.0024,-0.0021,-0.0047,-0.0048,-0.0036,-0.0036,-0.0036,-0.0036,0,0,0.0011,0.0049,0.0056,0.0093,0.0099,0.011,0.0123,0.0131,0.0146,0.0106,0.0119,0.0097,0.0064,0.0069,0.0048,0.0034,0.0007,0.0001,0.0001,-0.002,-0.003,-0.0021,-0.0022,-0.0009,-0.0008,-0.0008,-0.0059,0,0.0057,0.0125,0.0126,0.0189,0.0229,0.021,0.0228,0.0222,0.0195,0.0187,0.0148,0.0144,0.0102,0.0093,0.0071,0.003,0.0008,0.0021,-0.0029,-0.003,-0.0022,-0.0021,-0.0007,-0.006,-0.006,-0.006,-0.006,0,0.0112,0.0155,0.023,0.028,0.0294,0.0318,0.034,0.0355,0.0323,0.0297,0.0268,0.022,0.0201,0.0151,0.0096,0.01,0.0039,-0.0005,-0.0008,0.0009,-0.0022,-0.0057,-0.0062,-0.0062,-0.0061,-0.0061,-0.0061,0,0.0161,0.023,0.0297,0.0319,0.0362,0.0388,0.0403,0.0389,0.0398,0.0373,0.035,0.031,0.0295,0.0218,0.0116,0.0104,0.0033,0.0013,-0.0038,-0.0039,-0.0032,-0.0032,-0.0032,-0.0031,-0.0031,-0.0031,-0.0031,0,0.0223,0.0278,0.033,0.0374,0.0447,0.0452,0.0506,0.0503,0.0485,0.0501,0.0419,0.0405,0.0308,0.024,0.0138,0.0053,0.0057,-0.0025,-0.0043,-0.0035,-0.0035,-0.0034,-0.0034,-0.0033,-0.0033,-0.0032,-0.0032,0,0.0265,0.0302,0.0388,0.0452,0.0478,0.0533,0.0575,0.0595,0.0576,0.0591,0.0581,0.0489,0.0412,0.0293,0.0178,0.0106,0.0008,-0.003,-0.0019,-0.0037,-0.0071,-0.007,-0.0078,-0.0078,-0.0078,-0.0078,-0.0078,0,0.0282,0.034,0.0446,0.0495,0.0529,0.0604,0.064,0.0648,0.0664,0.0641,0.0641,0.0562,0.0494,0.033,0.0207,0.0035,0.0003,-0.0044,-0.0053,-0.0054,-0.0072,-0.0071,-0.007,-0.0078,-0.0078,-0.0078,-0.0078,0,0.0322,0.0368,0.0432,0.0535,0.06,0.0677,0.0731,0.0733,0.0745,0.0742,0.0693,0.0587,0.0498,0.0351,0.0222,0.009,-0.0006,-0.0044,-0.0046,-0.0054,-0.0054,-0.0071,-0.007,-0.0077,-0.0077,-0.0077,-0.0077,0,0.0336,0.0382,0.0464,0.0549,0.0641,0.0701,0.0736,0.0754,0.0767,0.074,0.0737,0.061,0.0566,0.0379,0.0252,0.0137,0.0102,0.0064,0.0056,0.0054,0.0105,0.0125,0.0152,0,0,0,0,0,0.0345,0.0387,0.0463,0.0553,0.0644,0.0702,0.0766,0.0784,0.0804,0.0785,0.0758,0.0668,0.0487,0.0393,0.028,0.0231,0.0066,0.0094,0.0014,-0.0076,-0.0077,-0.0039,0,0,0,0,0,0,0.0344,0.0419,0.0449,0.0535,0.0595,0.0691,0.0734,0.0752,0.0736,0.0745,0.0643,0.0647,0.0456,0.0555,0.0279,0.0244,0.0179,0.0023,0.0021,-0.0076,-0.0076,-0.0077,-0.0038,0,0,0,0,0]}]]